Total_Precipitation_Accumulation
1.06 1.17 1.17 1.24 1.23 1.23 1.25 1.23 1.17 1.12 1.09 1.08 1.07 1.05 1.01 1.04 1.09 1.14 1.10 1.10 1.07 1.11 1.12 1.15 1.14 1.22 1.28 1.27 1.34 1.36 1.40 1.53 1.43 1.17 1.24 1.35 1.33 1.17 1.10 1.08 1.06 1.05 1.04
0.84 0.88 0.93 1.01 1.06 1.04 1.05 1.12 1.19 1.13 1.05 1.08 1.09 1.04 0.94 0.99 1.12 1.16 1.11 1.14 1.15 1.12 1.16 1.25 1.19 1.21 1.31 1.36 1.50 1.49 1.53 1.74 1.72 1.50 1.46 1.52 1.43 1.32 1.23 1.16 1.02 0.96 0.97
0.70 0.75 0.83 0.88 0.90 0.89 0.92 1.02 1.12 1.15 1.15 1.10 1.08 0.99 0.95 0.97 1.03 1.08 1.14 1.23 1.27 1.27 1.31 1.36 1.35 1.45 1.44 1.47 1.53 1.53 1.60 1.80 1.93 1.80 1.72 1.79 1.78 1.55 1.42 1.23 1.10 1.10 0.96
0.74 0.86 0.96 0.99 0.97 0.97 0.96 1.02 1.11 1.19 1.20 1.23 1.23 1.24 1.23 1.17 1.13 1.15 1.22 1.26 1.29 1.34 1.42 1.42 1.44 1.52 1.59 1.65 1.66 1.76 1.88 2.05 2.18 2.10 2.01 2.08 2.10 1.94 1.73 1.43 1.33 1.26 1.14
0.95 1.05 1.20 1.32 1.33 1.22 1.17 1.22 1.29 1.36 1.42 1.56 1.55 1.51 1.51 1.44 1.29 1.33 1.35 1.31 1.41 1.35 1.39 1.42 1.38 1.43 1.50 1.61 1.63 1.78 1.99 2.19 2.35 2.39 2.36 2.50 2.43 2.25 1.97 1.63 1.54 1.45 1.31
0.78 0.88 1.05 1.22 1.31 1.27 1.25 1.35 1.46 1.53 1.65 1.71 1.65 1.60 1.58 1.38 1.47 1.51 1.47 1.54 1.57 1.52 1.51 1.53 1.46 1.40 1.38 1.43 1.51 1.63 1.78 1.98 2.22 2.42 2.50 2.57 2.59 2.42 2.20 1.94 1.60 1.35 1.24
0.86 0.97 1.04 1.16 1.27 1.30 1.31 1.41 1.51 1.54 1.56 1.62 1.61 1.56 1.46 1.43 1.40 1.30 1.31 1.32 1.44 1.50 1.51 1.51 1.37 1.23 1.27 1.21 1.30 1.35 1.38 1.48 1.60 1.84 2.06 2.12 2.28 2.35 2.22 1.91 1.63 1.39 1.22
0.88 0.97 1.03 1.14 1.26 1.38 1.53 1.62 1.68 1.73 1.74 1.73 1.66 1.61 1.59 1.51 1.37 1.23 1.23 1.17 1.24 1.29 1.32 1.34 1.33 1.23 1.20 1.23 1.23 1.17 1.08 1.08 1.16 1.20 1.33 1.57 1.79 2.03 2.09 1.98 1.89 1.63 1.34
1.01 1.09 1.16 1.23 1.37 1.46 1.54 1.67 1.77 1.84 1.82 1.81 1.80 1.82 1.84 1.81 1.67 1.40 1.29 1.26 1.35 1.35 1.33 1.32 1.34 1.24 1.25 1.15 1.12 1.09 1.02 0.97 0.97 1.02 1.09 1.26 1.50 1.69 1.89 1.90 1.82 1.71 1.47
1.18 1.22 1.27 1.41 1.49 1.50 1.51 1.58 1.63 1.68 1.71 1.74 1.71 1.78 1.78 1.80 1.82 1.50 1.27 1.16 1.24 1.27 1.33 1.34 1.37 1.27 1.30 1.22 1.22 1.23 1.13 1.02 0.98 0.94 0.97 1.04 1.12 1.36 1.62 1.63 1.58 1.58 1.46
1.28 1.28 1.34 1.42 1.57 1.60 1.62 1.57 1.51 1.52 1.55 1.61 1.64 1.70 1.74 1.75 1.70 1.36 1.23 1.18 1.27 1.30 1.27 1.24 1.27 1.25 1.11 1.02 0.98 1.01 1.03 1.01 1.02 1.00 0.99 1.02 1.09 1.18 1.36 1.46 1.49 1.44 1.36
1.19 1.22 1.28 1.33 1.32 1.34 1.47 1.52 1.51 1.50 1.52 1.58 1.66 1.68 1.67 1.64 1.53 1.25 1.01 0.99 1.08 1.13 1.14 1.13 1.15 1.10 0.95 0.84 0.75 0.74 0.76 0.74 0.81 0.90 0.93 0.93 0.96 1.02 1.17 1.39 1.54 1.51 1.36
1.25 1.35 1.41 1.42 1.41 1.40 1.41 1.42 1.39 1.35 1.29 1.30 1.43 1.50 1.52 1.55 1.47 1.21 0.97 0.87 0.90 0.92 1.01 1.17 1.16 1.02 0.94 0.87 0.80 0.72 0.65 0.61 0.68 0.77 0.75 0.76 0.79 0.86 1.02 1.32 1.57 1.72 1.60
1.41 1.38 1.36 1.38 1.34 1.32 1.37 1.34 1.29 1.25 1.21 1.18 1.32 1.46 1.53 1.55 1.46 1.26 1.08 0.97 0.97 0.97 1.01 1.15 1.20 1.17 1.09 1.01 0.90 0.73 0.59 0.58 0.61 0.67 0.71 0.74 0.82 0.90 1.02 1.10 1.34 1.55 1.62
1.29 1.19 1.21 1.23 1.17 1.09 1.16 1.22 1.13 1.12 1.14 1.15 1.30 1.52 1.56 1.47 1.35 1.18 1.04 1.04 1.04 1.10 1.13 1.27 1.39 1.40 1.37 1.26 1.10 0.93 0.81 0.76 0.73 0.72 0.81 0.84 0.87 0.90 0.93 0.97 1.13 1.28 1.30
1.25 1.15 1.06 1.03 1.02 1.04 1.08 1.11 1.08 0.94 0.93 0.89 0.96 1.09 1.21 1.16 1.06 0.95 0.88 0.87 0.85 0.87 0.93 1.14 1.40 1.48 1.49 1.47 1.36 1.17 1.02 0.94 0.90 0.88 0.90 0.91 0.90 0.94 0.97 1.02 1.09 1.20 1.20
1.24 1.19 1.06 0.93 0.87 0.87 0.91 0.97 0.99 0.91 0.73 0.67 0.67 0.67 0.70 0.72 0.71 0.76 0.78 0.72 0.66 0.61 0.64 0.86 1.17 1.38 1.46 1.50 1.42 1.24 1.07 1.02 1.04 0.99 0.96 0.95 0.94 0.95 1.02 1.07 1.09 1.16 1.21
1.04 1.06 0.98 0.89 0.84 0.81 0.80 0.79 0.79 0.85 0.87 0.77 0.65 0.57 0.56 0.56 0.59 0.76 0.85 0.67 0.55 0.50 0.52 0.69 0.95 1.22 1.32 1.38 1.37 1.30 1.20 1.15 1.14 1.09 1.05 1.02 1.01 1.02 1.01 1.04 1.08 1.12 1.15
0.95 0.96 0.89 0.86 0.86 0.86 0.87 0.81 0.76 0.79 0.89 0.96 0.89 0.69 0.62 0.60 0.64 0.85 0.94 0.69 0.60 0.65 0.66 0.72 0.87 1.10 1.26 1.36 1.37 1.35 1.29 1.26 1.24 1.24 1.19 1.16 1.13 1.15 1.11 1.06 1.09 1.18 1.21
0.87 0.95 0.89 0.81 0.81 0.85 0.86 0.82 0.83 0.90 0.99 1.10 1.11 0.86 0.70 0.66 0.69 0.95 1.06 0.91 0.86 0.87 0.86 0.86 0.92 1.06 1.22 1.35 1.38 1.35 1.37 1.35 1.36 1.33 1.29 1.25 1.20 1.20 1.21 1.18 1.19 1.23 1.18
0.80 0.83 0.84 0.78 0.81 0.85 0.86 0.87 0.88 0.97 1.07 1.14 1.08 0.87 0.74 0.68 0.79 1.01 1.18 1.10 1.02 1.02 1.00 0.96 0.98 1.09 1.19 1.30 1.32 1.29 1.30 1.36 1.35 1.32 1.29 1.27 1.23 1.19 1.19 1.21 1.20 1.23 1.22
0.75 0.78 0.78 0.78 0.79 0.80 0.83 0.89 0.95 1.06 1.16 1.19 1.06 0.89 0.84 0.81 0.89 1.05 1.10 1.06 1.02 1.00 0.98 0.99 1.04 1.13 1.18 1.22 1.23 1.25 1.28 1.31 1.29 1.29 1.31 1.30 1.29 1.25 1.25 1.23 1.20 1.22 1.25
0.68 0.73 0.77 0.80 0.81 0.77 0.77 0.82 0.86 0.94 1.05 1.10 1.00 0.93 0.92 0.99 0.99 1.03 1.08 1.08 1.04 1.00 0.96 0.98 1.02 1.03 1.04 1.05 1.03 1.07 1.13 1.13 1.12 1.14 1.22 1.27 1.29 1.27 1.24 1.19 1.16 1.18 1.21
0.49 0.48 0.49 0.52 0.54 0.56 0.60 0.64 0.66 0.71 0.82 0.89 0.86 0.89 0.92 0.94 0.91 0.94 0.98 0.99 0.98 0.98 0.95 0.90 0.89 0.87 0.88 0.89 0.89 0.90 0.91 0.95 0.96 1.00 1.04 1.13 1.17 1.21 1.20 1.15 1.15 1.15 1.16
0.42 0.42 0.41 0.44 0.46 0.47 0.51 0.55 0.62 0.68 0.73 0.76 0.81 0.84 0.88 0.88 0.88 0.92 0.90 0.89 0.89 0.89 0.84 0.82 0.83 0.83 0.83 0.78 0.74 0.70 0.72 0.71 0.74 0.82 0.87 0.97 1.02 1.07 1.09 1.07 1.09 1.13 1.13
0.40 0.44 0.45 0.48 0.50 0.51 0.54 0.58 0.63 0.64 0.66 0.69 0.75 0.82 0.86 0.85 0.86 0.86 0.83 0.81 0.83 0.81 0.77 0.75 0.73 0.75 0.75 0.70 0.65 0.62 0.58 0.54 0.56 0.65 0.68 0.78 0.89 0.95 0.98 1.02 1.01 1.06 1.06